Temp
8 9 9 9 9 9 10 11 11 11 11 10 10 10 11 12 13 13 13 13 13 12 12 12 11 10 10 9 9 9 9 9 9 9 9 9 9 9 9 9 9 9 8 8 8 8 8 8 8
9 9 8 8 9 9 11 11 11 11 11 11 10 10 11 12 13 13 13 13 13 13 12 12 11 10 9 9 9 8 8 8 8 9 9 9 9 9 9 9 8 8 8 8 8 8 8 8 7
9 9 8 8 9 9 10 11 11 11 11 11 11 11 11 12 12 12 12 11 12 12 12 11 11 10 9 9 8 8 8 8 8 8 8 8 8 8 8 8 8 8 8 8 8 8 8 7 7
8 8 8 8 9 9 10 11 10 12 12 12 12 11 12 12 12 12 11 11 11 11 11 10 10 10 9 8 8 8 8 8 8 8 8 8 8 8 8 8 8 8 8 7 8 7 7 7 7
8 8 8 8 10 10 10 10 10 11 11 12 12 11 11 11 11 11 11 10 10 10 10 9 9 9 9 8 8 8 8 8 8 7 7 7 7 7 7 7 7 7 7 7 7 7 7 7 7
8 8 8 9 10 10 10 10 10 10 10 11 11 11 11 10 11 10 10 10 10 10 9 9 9 9 8 8 8 7 7 7 7 7 7 7 7 7 7 7 7 7 6 6 6 6 7 7 7
8 8 8 9 10 10 10 10 10 10 10 10 10 10 11 10 10 10 10 10 10 10 10 9 9 9 8 7 7 7 7 7 7 7 6 6 6 6 7 7 7 7 6 6 5 5 6 6 6
8 7 7 9 9 10 10 10 9 9 9 9 10 10 10 10 10 9 9 10 10 10 10 9 9 8 8 8 6 6 6 6 6 6 6 6 6 6 6 6 6 6 5 5 4 3 6 6 6
9 8 9 9 9 9 10 9 10 9 9 9 10 10 10 10 10 10 9 9 9 9 10 10 9 9 9 8 7 6 7 7 6 6 6 6 6 6 6 6 5 5 5 4 3 4 5 6 6
10 9 10 10 9 9 10 9 9 9 9 9 9 10 10 10 10 10 10 9 9 9 9 9 9 9 9 8 7 7 6 6 6 6 6 6 6 5 5 5 5 5 5 5 4 5 5 5 5
9 9 10 10 9 8 9 10 9 9 9 9 9 9 9 9 9 10 10 9 9 9 9 9 9 9 9 8 7 6 6 6 6 5 5 5 5 5 5 6 5 5 5 5 5 5 5 5 5
7 8 8 8 9 9 9 8 9 8 9 9 9 9 9 9 9 9 9 9 9 9 9 9 9 9 9 9 7 7 6 6 5 6 5 5 5 5 5 5 4 4 5 5 4 5 5 5 4
7 8 8 8 8 9 9 9 8 8 9 8 9 9 9 9 9 9 9 9 9 9 9 8 8 8 8 8 8 7 6 6 6 6 6 5 5 5 5 5 4 4 4 4 4 4 4 4 4
7 7 8 8 8 8 8 8 8 8 8 9 9 9 9 9 9 9 8 9 8 8 8 8 8 8 8 8 8 8 7 7 7 6 6 6 5 5 5 4 4 4 4 4 4 4 4 4 3
6 7 7 8 8 8 8 8 8 8 8 8 9 9 9 9 9 9 8 8 8 8 8 8 8 8 7 7 7 7 7 6 6 6 6 5 4 4 3 3 3 4 4 3 3 3 3 3 3
5 5 6 8 7 7 7 7 8 8 8 8 8 8 9 9 8 8 8 8 8 7 7 7 7 7 6 6 6 5 5 5 5 5 5 4 3 3 3 3 3 3 3 3 3 3 3 3 2
5 5 6 6 7 7 6 7 7 8 8 8 8 7 7 8 8 8 8 8 8 7 7 7 7 7 7 6 5 5 4 4 4 4 4 3 3 3 3 3 3 3 2 2 2 2 2 2 1
5 5 4 4 6 6 6 6 7 7 7 7 7 8 7 7 7 7 7 7 7 7 7 7 7 7 6 5 5 4 3 3 3 3 3 3 3 2 2 2 2 2 2 2 2 1 1 1 1
3 4 4 6 6 5 6 6 7 7 7 7 7 7 7 8 8 7 7 7 7 7 7 7 7 6 5 5 4 4 3 2 2 2 2 2 2 2 2 2 2 2 2 1 1 1 1 0 -0
4 4 5 5 5 5 4 5 6 6 7 7 8 8 7 7 7 7 7 7 7 7 6 6 6 6 5 4 4 3 2 2 2 2 1 1 1 2 2 2 2 2 1 1 1 0 -0 -0 -0
5 4 5 4 4 4 4 5 6 6 6 7 7 8 7 7 6 6 6 6 6 6 6 6 6 6 4 4 4 3 2 1 1 1 1 1 2 2 2 1 1 1 1 0 -0 -0 -0 -0 -1
4 4 4 4 3 3 2 2 8 7 7 6 7 7 7 7 7 7 6 6 5 5 5 5 5 5 4 4 3 3 2 0 0 1 1 1 2 2 2 1 0 -0 -1 -1 -1 -1 -1 -1 -1
4 4 3 3 3 2 3 2 7 7 7 5 5 5 6 6 6 6 5 5 5 5 5 4 4 4 4 3 3 2 1 -0 -0 -0 -0 0 1 0 0 -0 -1 -1 -1 -1 -1 -2 -2 -2 -2
3 2 2 2 2 1 4 2 4 6 7 5 4 4 4 4 5 5 5 6 5 5 5 4 3 3 3 3 2 1 -1 -0 -0 -1 -0 -0 -0 -0 -1 -1 -1 -1 -1 -2 -2 -2 -2 -2 -2
2 1 0 0 -1 1 4 3 3 6 5 4 3 3 3 3 4 4 4 5 6 5 5 4 3 3 3 2 1 -0 -0 -1 -1 -1 -1 -1 -1 -1 -1 -1 -1 -2 -2 -2 -2 -2 -2 -2 -3
-0 0 0 -0 1 1 2 1 3 3 4 3 3 3 3 3 4 4 4 4 4 4 5 3 1 1 1 0 -1 -2 -1 -2 -2 -1 -1 -1 -1 -1 -2 -2 -2 -2 -2 -2 -2 -2 -3 -3 -4
-1 -1 -1 -1 -1 -1 -0 0 1 1 1 2 2 2 2 2 3 3 3 3 3 3 3 2 -0 1 -1 -2 -3 -3 -1 -3 -3 -3 -2 -2 -2 -2 -2 -2 -2 -3 -2 -2 -2 -3 -3 -4 -4
-2 -2 -2 -2 -2 -3 -1 -0 0 1 1 1 1 1 2 2 2 2 2 2 2 2 0 -1 -0 -2 -3 -4 -4 -3 -2 -3 -3 -3 -3 -2 -3 -3 -3 -3 -3 -3 -3 -3 -3 -3 -4 -4 -5
-4 -4 -4 -4 -4 -4 -4 -3 -1 -1 -1 -0 0 0 0 0 1 1 1 1 1 0 -1 -1 -2 -3 -4 -4 -4 -3 -3 -3 -3 -3 -3 -3 -3 -3 -3 -3 -3 -3 -3 -3 -4 -4 -4 -5 -5
-4 -4 -4 -5 -4 -4 -4 -4 -3 -2 -2 -2 -2 -2 -3 -2 -2 -2 -2 -3 -1 -2 -2 -2 -3 -4 -4 -4 -3 -3 -3 -3 -4 -3 -3 -3 -4 -4 -3 -3 -3 -3 -4 -4 -4 -5 -5 -5 -5
Height
3129 3129 3129 3130 3135 3129 3128 3130 3129 3129 3129 3128 3127 3127 3128 3128 3127 3131 3128 3128 3127 3128 3130 3132 3133 3134 3135 3137 3139 3142 3144 3147 3149 3151 3152 3152 3153 3155 3156 3157 3158 3158 3159 3159 3159 3160 3160 3159 3159
3129 3129 3129 3129 3130 3127 3127 3127 3127 3128 3127 3126 3124 3124 3126 3126 3125 3126 3126 3126 3127 3127 3129 3131 3133 3133 3135 3136 3138 3140 3142 3145 3147 3148 3150 3151 3153 3153 3154 3155 3156 3157 3157 3158 3158 3159 3159 3159 3158
3128 3128 3129 3128 3125 3126 3127 3128 3127 3124 3124 3122 3122 3122 3123 3124 3124 3124 3124 3125 3124 3124 3125 3127 3129 3131 3133 3136 3138 3139 3141 3142 3144 3146 3148 3150 3151 3152 3152 3153 3154 3155 3156 3157 3157 3158 3157 3158 3157
3127 3127 3128 3125 3124 3126 3126 3126 3125 3122 3120 3120 3121 3121 3121 3122 3122 3122 3122 3122 3123 3123 3124 3124 3126 3127 3129 3132 3135 3138 3139 3141 3143 3144 3146 3147 3148 3149 3150 3151 3153 3154 3154 3155 3156 3156 3156 3157 3156
3126 3126 3125 3122 3122 3123 3124 3124 3122 3120 3118 3118 3119 3120 3120 3120 3122 3122 3122 3122 3121 3121 3122 3123 3124 3126 3127 3129 3131 3134 3136 3138 3140 3141 3142 3143 3145 3147 3148 3149 3150 3152 3152 3153 3154 3155 3154 3155 3154
3125 3126 3123 3121 3121 3122 3123 3123 3121 3119 3118 3119 3119 3118 3118 3119 3119 3120 3120 3120 3120 3120 3120 3121 3123 3124 3126 3127 3129 3130 3133 3136 3138 3139 3140 3141 3143 3144 3145 3146 3147 3149 3151 3152 3152 3152 3152 3152 3152
3124 3124 3121 3119 3118 3119 3121 3120 3118 3118 3117 3117 3117 3116 3117 3116 3117 3117 3117 3118 3118 3118 3118 3119 3119 3120 3122 3124 3126 3128 3131 3133 3135 3137 3138 3139 3141 3142 3143 3143 3144 3145 3146 3150 3150 3148 3151 3149 3149
3122 3122 3118 3117 3116 3117 3118 3117 3115 3115 3114 3115 3114 3114 3115 3114 3114 3114 3115 3115 3115 3114 3114 3115 3115 3115 3117 3119 3121 3125 3127 3129 3132 3134 3135 3136 3137 3139 3139 3141 3142 3142 3143 3143 3145 3146 3147 3147 3146
3120 3119 3115 3115 3115 3114 3115 3113 3114 3111 3110 3112 3112 3112 3113 3112 3111 3111 3110 3111 3112 3112 3111 3110 3111 3112 3113 3114 3116 3119 3122 3125 3126 3128 3130 3131 3133 3134 3136 3137 3137 3137 3136 3138 3139 3141 3143 3142 3143
3113 3111 3109 3110 3110 3109 3110 3110 3110 3109 3108 3107 3109 3110 3108 3109 3109 3108 3107 3106 3107 3107 3108 3107 3107 3109 3110 3111 3112 3115 3118 3121 3123 3124 3125 3126 3128 3130 3131 3132 3131 3132 3134 3135 3137 3139 3138 3138 3139
3107 3103 3107 3106 3105 3104 3104 3104 3105 3104 3103 3105 3105 3105 3105 3105 3104 3104 3104 3103 3102 3103 3104 3105 3105 3106 3106 3107 3108 3111 3113 3115 3117 3119 3120 3122 3124 3125 3125 3126 3126 3129 3131 3132 3133 3133 3134 3135 3135
3102 3102 3102 3102 3103 3099 3097 3096 3097 3098 3098 3099 3099 3099 3099 3099 3099 3100 3100 3099 3098 3098 3100 3101 3102 3102 3103 3104 3106 3107 3108 3110 3112 3113 3114 3116 3118 3118 3120 3121 3122 3126 3127 3128 3129 3130 3130 3131 3132
3097 3097 3096 3095 3097 3095 3092 3090 3089 3088 3093 3091 3092 3093 3094 3094 3094 3094 3094 3095 3094 3094 3095 3096 3097 3099 3101 3101 3101 3103 3104 3105 3106 3107 3108 3110 3112 3113 3114 3115 3118 3121 3123 3124 3125 3126 3127 3128 3128
3093 3091 3090 3090 3090 3088 3087 3086 3083 3084 3084 3083 3083 3085 3085 3087 3088 3087 3089 3090 3090 3090 3091 3092 3093 3094 3095 3095 3097 3098 3098 3099 3099 3100 3102 3103 3105 3107 3109 3111 3114 3117 3119 3120 3121 3122 3123 3123 3123
3089 3086 3086 3088 3086 3083 3082 3077 3078 3079 3078 3078 3077 3077 3078 3079 3081 3083 3083 3083 3085 3087 3086 3086 3087 3088 3089 3088 3089 3090 3091 3092 3093 3094 3095 3097 3099 3101 3104 3107 3110 3113 3114 3116 3117 3117 3118 3119 3119
3086 3083 3080 3085 3083 3080 3077 3069 3074 3075 3072 3071 3071 3069 3070 3072 3075 3076 3077 3077 3078 3079 3080 3080 3081 3081 3082 3083 3084 3084 3085 3086 3087 3089 3090 3092 3094 3097 3100 3103 3106 3108 3110 3111 3111 3112 3113 3114 3114
3080 3077 3077 3077 3079 3076 3072 3064 3068 3071 3067 3066 3065 3067 3064 3065 3068 3070 3072 3072 3072 3073 3075 3076 3077 3076 3076 3076 3078 3079 3080 3080 3082 3083 3085 3087 3091 3094 3096 3099 3101 3103 3104 3106 3107 3108 3109 3109 3110
3075 3075 3073 3073 3075 3072 3068 3058 3060 3064 3061 3060 3061 3061 3060 3058 3061 3063 3064 3066 3068 3068 3068 3069 3070 3070 3070 3070 3071 3072 3074 3075 3076 3078 3080 3083 3086 3090 3092 3093 3095 3098 3099 3101 3102 3103 3104 3104 3104
3071 3070 3068 3070 3071 3064 3064 3054 3054 3055 3054 3054 3054 3054 3053 3052 3055 3055 3056 3058 3060 3060 3060 3061 3060 3062 3064 3065 3065 3065 3067 3069 3071 3072 3075 3078 3081 3084 3087 3088 3090 3092 3094 3096 3097 3098 3098 3098 3098
3067 3066 3065 3061 3066 3063 3058 3042 3046 3047 3045 3046 3045 3045 3045 3044 3045 3047 3047 3048 3049 3050 3051 3053 3055 3056 3057 3059 3061 3059 3060 3061 3064 3066 3069 3071 3075 3078 3081 3083 3085 3087 3089 3091 3092 3093 3093 3093 3092
3062 3061 3060 3059 3057 3055 3052 3033 3034 3033 3034 3038 3039 3040 3038 3037 3037 3037 3037 3039 3041 3040 3042 3046 3048 3049 3051 3054 3055 3055 3053 3054 3056 3060 3063 3065 3068 3073 3076 3078 3080 3081 3084 3085 3086 3087 3087 3087 3088
3055 3059 3056 3053 3052 3048 3045 3040 3020 3022 3022 3025 3031 3033 3032 3032 3030 3028 3028 3028 3030 3032 3035 3038 3038 3042 3046 3047 3048 3048 3049 3050 3054 3055 3057 3060 3062 3066 3069 3071 3074 3076 3078 3079 3080 3081 3081 3082 3082
3048 3051 3048 3047 3047 3049 3029 3043 3012 3017 3013 3016 3021 3024 3025 3025 3022 3020 3019 3019 3021 3021 3023 3027 3030 3033 3035 3038 3040 3041 3043 3045 3046 3050 3051 3054 3057 3061 3064 3067 3070 3072 3073 3074 3075 3076 3076 3076 3076
3045 3042 3041 3038 3038 3039 3016 3036 3013 3010 3009 3011 3013 3014 3016 3014 3014 3012 3011 3010 3010 3013 3014 3016 3020 3022 3025 3029 3031 3033 3036 3037 3041 3044 3047 3049 3052 3056 3059 3062 3064 3066 3067 3069 3070 3071 3070 3070 3070
3037 3037 3036 3032 3031 3021 3020 3021 3004 3002 3008 3008 3006 3005 3007 3007 3004 3003 3002 3001 3001 3000 3002 3004 3007 3011 3014 3018 3022 3026 3028 3029 3036 3038 3042 3043 3047 3050 3053 3056 3058 3060 3062 3064 3064 3065 3065 3065 3066
3032 3036 3035 3027 3021 3016 3015 3008 2998 3001 3000 2999 2999 2998 2997 2997 2996 2995 2993 2994 2994 2993 2991 2991 2995 3000 3005 3010 3013 3017 3021 3023 3028 3033 3036 3038 3041 3044 3049 3052 3053 3055 3056 3057 3058 3059 3060 3061 3062
3027 3028 3030 3023 3019 3015 3004 2994 2995 2990 2992 2991 2988 2986 2987 2987 2988 2988 2987 2985 2985 2983 2982 2982 2986 2991 2991 2998 3000 3006 3013 3015 3021 3026 3029 3033 3036 3039 3042 3046 3048 3050 3050 3052 3053 3055 3056 3056 3056
3024 3024 3019 3017 3010 2999 2992 2990 2982 2984 2983 2981 2980 2979 2977 2977 2976 2975 2975 2973 2974 2972 2971 2973 2978 2979 2980 2986 2992 3000 3006 3010 3015 3021 3023 3027 3033 3033 3037 3040 3042 3045 3045 3048 3049 3050 3051 3051 3052
3018 3019 3018 3015 3008 2997 2987 2981 2981 2981 2981 2976 2974 2973 2971 2968 2965 2965 2962 2960 2960 2961 2963 2969 2966 2970 2977 2977 2986 2992 2999 3004 3010 3015 3017 3022 3026 3029 3032 3034 3037 3041 3041 3043 3045 3045 3046 3046 3047
3009 3004 3008 3001 2993 2987 2976 2966 2973 2971 2970 2967 2966 2963 2959 2957 2957 2956 2953 2950 2949 2954 2957 2958 2958 2964 2976 2977 2983 2989 2996 3000 3003 3006 3011 3017 3021 3023 3026 3029 3032 3035 3037 3037 3038 3040 3041 3042 3043
Wind_Speed
8 8 8 7 8 7 8 4 8 5 11 11 8 12 10 8 8 3 13 11 10 13 18 30 30 29 27 27 26 25 23 21 19 17 16 16 14 13 13 11 10 8 6 3 2 3 5 6 8
8 8 8 8 9 10 10 4 1 9 15 15 11 11 12 10 14 15 18 15 12 14 18 28 29 29 30 29 27 26 23 21 20 18 17 16 15 14 13 12 12 10 8 6 5 4 5 6 7
10 9 8 7 11 11 6 5 13 18 17 17 15 10 12 12 13 16 14 11 12 17 22 28 31 30 30 30 28 27 24 23 21 20 19 17 16 15 14 14 14 13 12 10 8 6 6 7 8
11 11 10 14 19 18 15 10 14 14 18 14 15 13 12 12 17 17 12 13 7 13 22 28 29 30 29 29 28 27 26 24 23 22 20 19 18 17 15 16 16 16 14 12 11 9 7 10 10
13 13 13 18 18 16 10 9 11 12 14 12 17 15 16 16 18 13 13 13 10 9 16 23 26 26 28 29 29 27 26 26 25 24 24 23 21 18 17 16 17 16 15 13 11 12 9 12 12
12 14 15 21 20 16 5 9 10 9 12 11 12 15 16 16 17 14 12 10 8 8 13 16 19 22 25 28 28 28 28 27 27 27 26 23 21 18 16 17 17 14 13 13 12 11 13 13 15
14 16 22 23 22 17 3 7 7 9 12 13 14 16 17 16 14 16 13 10 7 7 9 15 21 24 26 27 28 28 27 27 27 26 24 22 19 18 18 18 16 13 12 17 19 12 20 16 17
13 17 25 25 24 19 9 12 8 12 13 13 13 14 14 15 18 12 13 12 13 10 12 13 19 24 22 26 27 27 28 29 26 25 23 25 25 21 20 20 17 17 19 25 13 15 22 18 17
15 19 27 28 26 25 17 19 14 15 14 14 17 16 16 18 18 17 16 16 17 19 16 13 15 21 22 24 27 29 31 32 30 30 28 25 24 24 23 25 24 20 20 16 14 15 22 17 17
22 26 25 25 26 25 23 23 23 24 21 17 20 22 21 21 22 21 21 18 17 13 16 15 14 16 19 22 25 29 30 29 29 28 28 28 27 26 27 30 32 19 16 16 18 20 18 17 15
25 31 23 26 29 33 31 29 27 29 28 25 22 25 24 25 23 24 22 18 14 12 15 16 16 16 19 22 24 27 30 31 31 31 31 30 30 30 32 33 25 15 17 17 19 19 18 17 14
26 27 26 26 27 34 35 35 34 31 32 26 26 27 28 28 25 22 21 16 15 13 14 17 17 18 19 21 25 28 29 31 33 32 32 33 32 33 34 30 20 19 19 19 19 20 18 16 15
24 24 23 25 24 30 34 36 36 37 34 36 34 32 32 29 26 20 21 20 19 16 14 15 16 17 19 21 24 26 28 29 29 28 30 33 34 33 31 23 16 19 19 18 20 20 18 16 17
26 26 24 24 23 27 29 30 32 30 33 38 36 38 35 34 29 20 19 20 21 18 17 18 18 20 23 25 26 26 26 26 26 26 27 29 30 30 24 21 18 19 20 21 20 20 18 17 18
21 25 24 19 21 26 29 34 30 22 19 25 29 25 24 26 30 26 18 19 19 22 21 21 20 20 23 26 29 29 29 28 27 27 26 26 25 24 21 18 20 22 22 20 21 19 18 18 19
26 30 29 19 16 18 22 33 26 24 23 22 20 20 25 23 23 23 23 22 19 24 26 25 23 19 20 26 29 29 29 28 28 26 25 24 23 19 18 20 22 22 21 20 19 18 18 19 20
26 24 26 28 20 23 25 35 33 28 31 28 26 23 19 21 23 25 24 23 24 26 28 28 25 22 21 22 26 29 29 28 25 25 26 23 20 20 21 22 23 20 19 18 18 19 19 19 20
22 22 21 22 23 24 29 38 35 29 29 30 30 31 29 25 22 21 23 24 26 28 29 29 29 26 24 22 23 24 27 26 25 25 25 22 20 21 22 21 18 18 18 18 19 19 19 20 20
19 23 26 24 23 33 31 39 35 32 33 34 32 33 36 38 32 31 31 28 27 32 34 33 34 30 24 22 20 19 22 25 25 25 25 24 25 24 21 20 18 19 19 18 19 19 20 19 19
18 24 25 30 24 26 32 47 43 39 39 39 40 39 36 34 35 39 39 32 34 35 38 38 36 33 25 22 24 21 22 25 28 28 27 25 24 21 20 20 20 20 20 20 20 20 20 20 19
18 18 25 30 29 29 34 50 44 42 41 39 31 27 31 31 31 34 35 34 36 39 40 38 39 37 28 27 26 27 28 29 28 28 27 27 20 20 21 21 21 21 20 20 19 19 20 18 18
26 24 30 31 28 23 22 16 56 41 39 34 25 15 16 26 35 39 40 39 37 36 40 44 45 40 36 31 28 28 26 22 19 26 29 26 25 29 28 27 25 20 18 17 19 19 18 18 17
34 30 29 28 27 34 47 12 55 49 48 34 26 26 27 29 34 37 36 31 26 29 34 41 46 45 43 38 31 27 24 24 29 25 26 28 27 26 25 22 20 17 17 18 18 17 17 17 18
36 35 35 37 36 16 56 22 41 54 43 35 35 20 31 28 31 33 34 33 30 29 35 36 43 51 49 41 33 28 26 32 30 25 26 28 26 24 23 21 19 17 17 16 16 16 17 17 17
18 24 6 4 4 10 26 17 41 49 40 37 43 35 31 36 33 31 25 25 36 40 36 35 44 52 52 42 32 29 33 30 30 25 26 24 24 23 21 20 18 17 16 16 16 16 16 17 17
25 14 9 7 13 19 39 14 28 31 35 43 55 53 44 35 26 32 35 41 35 36 43 38 42 54 45 37 32 30 34 30 30 27 26 26 25 24 22 19 18 17 15 14 13 14 15 15 15
22 22 22 25 31 21 35 42 47 55 50 48 50 50 40 40 36 37 38 35 34 37 35 33 38 52 42 34 33 31 34 31 27 28 28 27 26 23 20 20 18 15 13 12 13 14 14 13 13
24 24 19 14 9 18 16 28 30 24 25 25 30 34 35 38 38 41 44 39 35 33 30 22 44 37 33 27 26 28 26 28 28 28 27 27 25 22 21 20 17 14 13 12 14 14 13 13 13
34 30 35 31 27 10 13 10 24 30 32 38 45 43 40 40 41 42 46 49 42 33 23 31 37 19 23 26 26 25 30 29 30 29 29 29 25 24 22 20 18 15 12 13 13 13 13 13 12
35 40 37 19 18 32 36 32 46 47 47 45 49 40 34 35 34 41 36 32 31 22 25 40 26 20 20 20 22 24 25 32 32 30 30 29 25 25 24 23 21 17 15 13 12 13 13 13 13
Wind_Direction
259 254 251 260 265 236 247 265 278 290 328 333 316 304 310 315 337 341 322 330 289 247 232 216 209 201 206 205 208 209 211 215 218 221 223 223 221 219 217 216 219 220 231 245 296 330 339 342 343
259 265 271 273 263 253 273 281 142 322 322 312 282 261 289 306 319 321 322 300 288 249 236 226 218 207 206 208 210 211 213 216 218 220 224 228 230 231 229 228 232 233 235 239 252 278 302 312 327
275 273 278 273 259 266 288 306 313 312 297 285 257 249 269 285 307 319 316 295 257 241 231 223 221 215 210 211 213 213 214 217 218 219 222 227 233 236 237 237 236 236 239 243 250 261 275 290 306
277 270 272 263 266 278 292 309 320 306 299 252 242 257 266 290 305 310 316 318 280 246 238 226 220 217 215 216 215 217 216 217 216 216 220 226 229 231 234 237 238 239 240 246 251 255 267 279 287
272 272 266 270 279 294 309 337 330 336 329 253 238 259 268 279 293 287 302 313 301 245 236 233 227 225 222 223 221 219 219 218 218 218 222 226 228 230 232 234 238 243 246 247 253 258 260 272 281
258 271 270 278 289 299 314 340 341 330 341 306 264 281 281 280 286 279 294 302 287 271 233 240 244 240 233 229 227 222 220 220 222 225 229 232 235 235 239 241 238 239 253 254 253 265 270 270 282
268 270 274 281 289 297 241 324 339 331 314 303 292 285 287 282 285 296 289 291 284 270 254 247 243 246 245 238 228 224 225 226 228 231 235 237 236 249 241 242 236 233 238 270 263 257 268 275 281
288 273 276 283 287 294 262 276 275 307 311 304 299 289 289 289 300 282 276 274 275 291 268 252 249 242 244 243 227 224 226 228 232 237 249 242 239 243 244 235 224 258 277 249 257 249 268 274 286
284 272 276 281 289 293 280 270 240 281 291 294 296 286 289 294 295 291 281 280 279 279 263 253 249 240 240 233 225 224 228 231 231 234 237 242 245 246 243 237 242 257 264 277 232 246 261 276 284
262 263 275 282 283 284 285 277 276 283 285 279 289 288 287 283 286 290 290 284 292 283 270 257 249 241 241 233 225 227 231 234 238 241 242 243 244 246 246 243 253 265 243 251 251 257 271 278 277
261 263 274 272 277 278 280 278 282 283 281 282 282 283 281 282 282 282 277 280 273 270 258 258 256 247 239 235 231 229 231 235 239 242 246 248 247 248 250 252 266 239 239 245 257 269 274 272 273
263 270 271 271 272 276 280 279 277 278 280 280 278 279 279 286 289 283 266 263 263 266 262 259 254 251 247 243 235 233 236 239 241 243 245 247 249 250 254 262 263 233 242 251 262 269 268 266 271
268 275 267 270 266 266 273 277 284 276 281 279 277 274 277 281 281 277 263 263 265 258 261 259 260 266 266 254 245 242 242 243 246 248 246 248 248 249 254 255 240 238 247 257 265 268 263 264 273
271 273 272 267 270 270 271 274 273 282 280 281 285 280 275 273 274 274 268 273 272 251 262 255 259 264 260 261 261 249 248 247 250 250 247 245 248 250 248 245 236 244 255 260 262 257 258 265 276
275 276 267 272 279 279 272 269 266 269 277 274 280 274 272 268 267 277 273 274 269 258 253 258 264 264 264 256 252 249 249 248 249 249 246 245 241 236 235 235 242 249 255 259 254 254 260 269 277
280 284 288 283 285 274 261 268 268 265 276 281 289 280 259 261 267 264 269 282 274 253 259 260 266 268 266 260 256 252 253 256 260 256 247 238 235 233 234 239 247 256 255 249 252 259 267 273 280
279 279 284 291 285 266 265 275 269 274 278 280 280 287 266 250 254 263 274 273 270 256 256 260 265 266 269 264 255 254 253 255 258 255 248 240 237 236 240 245 248 248 245 247 253 258 263 269 278
285 287 285 289 290 282 279 272 276 277 274 277 275 276 274 263 256 257 256 258 267 265 266 266 260 258 260 262 259 254 251 250 253 251 246 241 242 246 245 246 246 244 242 245 252 258 266 275 285
283 280 287 292 297 295 289 285 283 281 283 285 281 281 277 272 272 263 256 251 256 259 260 261 260 256 258 258 255 256 254 248 246 241 238 238 239 240 242 240 239 240 242 247 255 263 271 280 292
281 287 295 299 307 298 295 287 288 288 286 285 283 276 277 275 271 267 268 261 255 257 261 259 259 256 252 261 256 244 243 240 237 238 235 235 236 236 237 235 237 241 244 247 254 264 275 285 291
275 280 294 301 306 297 302 293 296 293 295 299 288 283 282 280 278 272 266 265 261 256 257 264 264 255 251 251 253 251 240 235 235 237 236 236 228 239 238 236 236 238 244 250 258 270 278 280 280
282 280 293 297 299 302 302 293 298 303 304 295 294 294 281 289 290 285 277 272 267 259 258 257 259 258 257 250 248 253 249 244 243 242 237 227 221 228 228 229 231 230 239 253 264 270 270 271 278
281 290 286 285 284 297 286 239 281 291 291 283 283 280 286 290 282 277 277 279 279 261 257 253 253 254 254 246 245 243 235 226 230 234 233 229 230 228 230 230 230 237 249 260 259 258 265 276 283
286 280 278 279 277 261 267 226 271 280 285 287 292 289 297 280 268 273 271 276 289 288 263 254 251 248 250 241 237 234 222 223 229 230 238 229 227 224 224 226 234 246 252 247 252 262 273 280 283
289 278 297 278 183 246 283 244 246 284 284 283 287 289 290 296 276 256 272 281 283 287 287 265 250 245 247 235 229 226 223 221 228 227 234 228 226 222 222 227 239 242 238 248 261 270 275 278 276
298 293 244 271 278 286 284 259 263 275 276 283 287 290 291 289 264 265 271 283 273 283 276 274 251 243 235 224 218 217 224 215 221 225 223 223 220 222 226 233 229 226 236 250 267 278 278 272 266
285 280 276 285 277 273 266 273 277 277 281 282 281 283 281 276 273 268 269 269 273 271 278 278 246 236 216 215 214 215 223 214 219 222 222 222 219 218 223 222 221 224 237 256 273 276 274 269 265
281 287 294 266 274 264 257 258 260 283 291 279 284 289 286 288 283 282 277 280 283 267 266 255 228 218 208 211 207 208 218 221 217 219 219 221 218 218 217 218 220 230 245 257 267 271 269 267 263
301 286 282 276 268 273 281 261 269 275 278 281 277 278 283 285 285 280 281 281 275 263 265 233 213 197 201 180 200 206 206 212 216 218 218 215 214 216 217 217 219 233 235 256 272 272 268 266 263
288 289 291 262 275 263 265 268 273 280 282 276 274 274 268 265 274 281 290 301 270 260 228 213 198 184 185 186 197 209 203 212 212 212 216 215 217 217 218 218 223 232 244 259 274 270 265 258 255